Temp
45 43 38 41 42 40 37 35 36 43 46 40 44 46 50 53 54 52 54 57 58 61 64 65 64 63 63 63 63 64 64 66 68 68 68 69 70 72 74 75 76 77 75 73
42 37 42 42 41 38 37 36 38 44 43 41 44 44 51 51 51 52 54 56 59 59 61 62 63 63 61 61 62 63 63 64 66 68 69 71 72 73 75 75 75 73 72 71
38 40 43 41 38 36 39 36 38 37 42 45 41 45 45 50 51 52 54 57 59 58 58 60 61 62 62 60 61 61 62 63 65 66 67 68 69 71 71 72 72 71 72 71
40 43 40 39 37 39 31 42 39 36 32 30 42 32 42 48 48 50 54 57 57 57 58 59 59 60 60 61 61 61 61 62 64 65 65 65 65 65 69 71 72 73 71 71
38 39 38 37 39 40 36 40 38 37 31 31 35 28 41 45 46 50 53 54 54 55 56 56 57 58 60 60 59 60 60 61 62 63 64 65 65 68 71 72 72 72 69 70
41 44 42 42 43 42 44 39 37 34 31 26 33 33 36 43 45 48 51 49 49 51 52 54 56 58 58 59 59 59 58 59 61 61 63 63 65 67 68 69 70 72 72 68
36 36 42 43 38 41 38 33 29 27 27 29 28 28 36 45 48 49 44 45 47 47 46 48 50 54 57 57 58 59 58 57 60 60 61 62 64 66 66 67 69 70 71 71
29 29 38 43 40 34 33 32 29 22 27 31 30 28 38 47 52 50 45 44 44 45 46 49 53 56 57 57 58 60 59 58 60 60 60 62 63 64 66 68 69 70 72 73
31 32 42 43 43 39 34 30 39 30 31 27 36 38 45 49 45 42 40 41 40 42 47 48 53 59 58 58 58 60 59 60 61 61 61 61 63 63 64 66 68 70 71 73
36 29 39 40 41 41 36 38 30 32 25 25 33 31 33 34 35 37 37 38 39 43 46 48 51 56 59 59 60 61 61 60 61 62 62 62 63 64 65 66 66 68 69 70
37 33 36 39 36 34 35 34 34 34 34 27 27 32 37 34 36 34 35 37 40 43 44 46 49 52 55 60 60 61 61 61 61 62 63 63 63 64 65 64 66 68 69 70
41 35 32 36 44 46 42 39 36 31 29 31 29 31 42 39 39 36 36 39 42 43 44 45 47 48 49 51 55 60 61 61 61 63 63 63 63 63 63 64 65 67 68 70
43 37 32 35 39 42 38 41 40 39 34 30 27 30 42 40 39 38 37 40 42 43 43 45 46 46 47 48 51 56 58 58 59 60 61 62 62 63 63 64 65 66 68 70
46 40 33 32 33 38 34 39 40 35 31 32 31 31 36 37 37 37 38 41 41 42 42 43 43 44 45 47 48 48 49 50 54 56 59 60 61 62 64 65 66 68 69 69
44 34 38 40 40 39 39 38 40 33 38 31 37 34 36 40 39 38 40 41 41 40 40 41 41 42 43 44 45 46 47 48 53 54 55 59 61 61 62 64 66 67 67 68
43 38 38 34 41 40 36 40 41 40 40 38 39 39 47 49 46 41 40 39 38 39 39 40 41 42 42 42 43 45 45 46 49 49 50 55 53 52 54 56 57 61 62 63
40 39 36 33 38 37 34 41 42 42 43 42 37 44 47 45 43 41 40 40 39 39 40 40 41 42 42 43 45 43 44 47 46 47 46 47 48 49 49 49 50 50 50 49
40 38 38 35 38 28 41 45 45 43 45 45 45 46 46 46 46 45 45 43 42 42 43 43 44 46 47 48 48 50 49 45 44 44 43 44 45 46 46 46 46 47 47 47
43 41 37 32 33 40 43 42 42 41 44 49 47 48 47 47 47 44 46 46 45 44 45 46 47 48 49 49 49 49 47 48 46 44 44 45 45 44 44 43 43 45 45 44
39 40 39 33 28 30 43 44 48 48 39 49 50 48 47 47 43 46 46 45 46 46 46 45 47 48 48 48 50 49 46 44 42 43 44 47 48 48 45 46 44 44 45 44
36 37 34 36 33 40 48 47 48 37 43 49 49 49 47 46 50 48 46 45 45 45 45 47 47 46 45 47 48 45 45 42 44 43 43 44 45 45 47 48 48 47 46 46
38 36 35 35 32 31 47 44 42 50 48 50 49 49 48 49 46 46 46 45 45 45 45 45 45 44 45 45 48 45 42 44 45 46 44 44 45 46 47 47 47 48 48 46
35 43 43 42 44 48 49 52 54 52 52 49 50 49 50 47 46 46 46 46 46 45 45 45 45 44 44 44 45 44 43 45 46 45 43 43 43 45 46 46 46 46 47 45
41 43 41 41 50 47 50 52 50 52 52 53 52 51 49 48 48 47 47 47 46 46 45 45 44 44 44 44 43 43 44 45 45 44 43 44 43 43 44 43 44 44 44 43
47 40 41 41 47 49 48 49 53 52 51 50 51 51 50 50 49 49 48 47 47 47 46 45 45 45 44 44 44 43 43 44 43 42 41 41 42 42 42 42 43 44 43 43
40 43 42 46 47 47 50 50 50 50 50 51 50 48 50 51 51 50 49 50 48 47 46 44 44 45 44 44 43 43 43 43 44 43 42 41 42 41 41 40 39 39 40 40
MSLP
1020.89 1020.88 1021.04 1021.46 1021.82 1022.02 1022.20 1021.60 1021.15 1020.41 1020.33 1020.08 1018.13 1016.09 1015.23 1014.71 1014.30 1014.20 1014.01 1013.72 1013.48 1013.09 1012.91 1012.95 1013.11 1013.21 1013.12 1013.02 1012.92 1012.85 1012.91 1012.90 1012.97 1012.84 1012.80 1012.85 1012.68 1012.82 1012.76 1012.75 1012.69 1012.66 1013.17 1013.79
1021.27 1021.43 1021.99 1022.13 1022.21 1022.53 1022.43 1021.92 1021.06 1020.27 1020.19 1019.88 1017.69 1015.46 1014.44 1014.00 1013.74 1013.57 1013.64 1013.42 1013.01 1012.69 1012.41 1012.19 1012.16 1012.34 1012.43 1012.29 1012.21 1012.07 1012.06 1012.17 1012.24 1012.28 1012.14 1012.11 1012.07 1012.05 1012.03 1012.14 1012.16 1012.39 1012.85 1013.23
1021.33 1021.99 1022.25 1022.19 1022.59 1022.73 1022.19 1021.80 1021.39 1020.63 1019.96 1019.01 1018.45 1015.05 1014.02 1013.92 1013.83 1013.75 1013.84 1013.58 1012.84 1012.24 1011.80 1011.51 1011.38 1011.34 1011.42 1011.49 1011.41 1011.35 1011.18 1011.25 1011.35 1011.62 1011.73 1011.70 1011.72 1011.58 1011.42 1011.43 1011.53 1011.76 1012.03 1012.52
1021.91 1022.23 1022.42 1022.60 1022.44 1022.43 1021.90 1021.51 1021.55 1020.98 1020.90 1019.56 1018.78 1015.58 1013.77 1013.44 1013.56 1013.57 1013.29 1012.70 1012.18 1011.73 1011.56 1011.19 1010.77 1010.47 1010.44 1010.44 1010.61 1010.56 1010.51 1010.44 1010.49 1010.75 1010.91 1010.89 1010.75 1010.52 1010.57 1010.78 1011.18 1011.21 1011.45 1011.68
1022.07 1022.20 1022.23 1022.26 1021.82 1022.06 1021.81 1021.94 1021.62 1021.52 1020.83 1020.08 1018.15 1017.31 1013.90 1013.75 1013.02 1013.01 1012.76 1012.47 1012.24 1011.86 1011.25 1010.50 1010.17 1009.80 1009.62 1009.70 1009.76 1009.65 1009.72 1009.70 1009.81 1009.89 1010.03 1009.95 1009.89 1009.85 1009.97 1010.14 1010.21 1010.61 1011.06 1011.20
1022.37 1022.51 1022.32 1021.88 1021.62 1022.01 1021.98 1021.79 1021.37 1021.10 1020.38 1019.32 1017.81 1017.23 1014.14 1013.57 1013.37 1013.15 1012.84 1012.91 1012.58 1011.92 1011.18 1010.40 1009.71 1009.11 1008.73 1008.75 1008.78 1008.76 1008.79 1008.84 1009.01 1009.18 1009.28 1009.29 1009.27 1009.50 1009.53 1009.57 1009.57 1009.70 1010.18 1010.79
1022.25 1022.06 1022.08 1021.91 1021.99 1022.24 1022.04 1021.52 1020.41 1020.00 1019.36 1018.26 1018.24 1017.50 1014.48 1014.07 1013.94 1013.80 1013.59 1013.19 1012.84 1012.22 1011.21 1010.20 1009.08 1008.20 1007.60 1007.54 1007.59 1007.67 1007.90 1008.03 1008.15 1008.33 1008.59 1008.87 1009.04 1009.16 1009.19 1009.36 1009.34 1009.29 1009.43 1009.79
1021.92 1021.91 1021.48 1021.50 1021.39 1021.45 1021.62 1021.60 1020.56 1019.50 1018.42 1017.52 1017.80 1016.14 1014.24 1014.45 1014.37 1014.45 1014.49 1013.92 1013.07 1012.07 1011.02 1009.56 1007.99 1006.92 1006.72 1006.68 1006.72 1006.54 1006.76 1007.01 1007.30 1007.51 1007.77 1008.20 1008.47 1008.65 1008.82 1009.02 1009.11 1009.10 1008.97 1009.09
1021.88 1021.20 1020.91 1021.06 1021.16 1021.64 1021.44 1021.26 1020.52 1019.85 1018.63 1017.99 1016.11 1015.45 1014.67 1014.64 1014.65 1014.96 1014.70 1014.16 1013.33 1012.15 1010.81 1009.51 1007.71 1006.38 1006.26 1006.20 1006.11 1005.91 1006.10 1006.32 1006.44 1006.81 1007.22 1007.51 1007.76 1007.93 1008.07 1008.50 1008.73 1008.69 1008.80 1008.76
1021.73 1021.39 1020.76 1020.87 1021.07 1021.08 1021.05 1021.03 1020.48 1019.65 1018.15 1016.76 1015.57 1015.72 1015.52 1015.64 1015.56 1015.22 1014.61 1014.00 1013.19 1012.13 1010.91 1009.61 1008.10 1006.86 1005.96 1005.73 1005.66 1005.75 1005.73 1005.73 1005.77 1006.00 1006.25 1006.41 1006.72 1007.05 1007.37 1007.78 1007.95 1008.15 1008.28 1008.62
1021.61 1021.52 1020.43 1020.41 1020.13 1020.01 1020.44 1020.12 1019.79 1019.39 1018.29 1017.57 1016.42 1015.87 1016.65 1016.84 1016.60 1016.22 1015.57 1014.65 1013.56 1012.29 1011.01 1009.87 1008.60 1007.51 1006.50 1005.45 1005.13 1005.03 1004.87 1005.07 1005.15 1005.35 1005.38 1005.58 1005.84 1006.30 1006.75 1006.98 1007.07 1007.25 1007.55 1007.77
1020.94 1020.87 1019.81 1019.09 1019.05 1019.18 1019.30 1019.12 1019.22 1018.82 1018.28 1018.04 1017.82 1016.62 1016.92 1017.07 1016.73 1016.48 1015.64 1014.47 1013.54 1012.59 1011.60 1010.48 1009.51 1008.50 1007.52 1006.53 1005.43 1004.58 1004.51 1004.53 1004.62 1004.66 1004.91 1005.22 1005.40 1005.78 1006.09 1006.31 1006.47 1006.72 1006.84 1007.05
1020.49 1020.09 1019.27 1018.53 1018.94 1018.91 1018.70 1018.55 1018.61 1018.57 1018.51 1017.80 1017.64 1016.93 1016.99 1016.92 1016.57 1016.11 1015.36 1014.44 1013.65 1012.81 1011.91 1011.00 1010.06 1009.20 1008.19 1007.13 1005.71 1005.22 1005.01 1004.81 1004.51 1004.55 1004.80 1004.70 1004.70 1004.90 1005.22 1005.58 1005.90 1006.06 1006.28 1006.15
1020.24 1019.66 1019.45 1018.69 1018.48 1018.51 1018.34 1017.90 1018.04 1018.36 1017.94 1017.45 1017.43 1016.90 1016.61 1016.55 1016.28 1015.77 1015.07 1014.44 1013.70 1012.85 1012.00 1011.31 1010.60 1009.98 1009.15 1008.14 1007.31 1006.74 1006.15 1005.27 1004.53 1004.45 1004.53 1004.49 1004.50 1004.56 1004.92 1005.06 1005.22 1005.32 1005.69 1005.89
1020.06 1019.52 1019.03 1018.43 1018.19 1018.14 1018.00 1017.44 1017.38 1017.61 1017.31 1017.17 1016.38 1016.38 1016.31 1016.19 1016.25 1016.20 1015.68 1014.79 1014.17 1013.67 1012.96 1012.33 1011.68 1010.94 1010.04 1009.15 1008.58 1007.79 1006.67 1004.81 1004.20 1004.58 1004.72 1004.74 1004.76 1004.74 1004.85 1005.02 1005.04 1005.21 1005.42 1005.52
1020.07 1019.31 1018.89 1017.78 1017.22 1017.41 1017.30 1016.56 1016.42 1016.51 1016.59 1016.19 1015.77 1015.21 1015.65 1015.57 1016.01 1016.05 1016.08 1015.79 1015.29 1014.82 1014.28 1013.57 1012.69 1012.05 1011.38 1010.50 1009.59 1008.76 1007.83 1006.67 1005.77 1005.80 1005.94 1005.56 1005.44 1005.37 1005.53 1005.55 1005.79 1005.53 1005.60 1005.67
1020.00 1019.51 1018.98 1017.47 1017.18 1016.80 1016.06 1014.71 1014.87 1015.19 1015.39 1015.19 1014.82 1014.47 1015.00 1015.20 1015.63 1016.13 1016.17 1016.16 1016.03 1015.72 1015.32 1014.62 1013.84 1013.11 1012.35 1011.75 1011.00 1009.80 1009.15 1008.44 1007.89 1007.49 1007.01 1006.52 1006.00 1006.02 1005.93 1006.00 1006.01 1006.36 1006.83 1006.77
1019.72 1019.61 1019.18 1017.70 1016.82 1015.75 1014.52 1014.62 1014.44 1014.47 1014.27 1014.35 1014.20 1014.16 1014.80 1015.19 1015.70 1016.26 1016.48 1016.44 1016.34 1016.15 1015.69 1015.28 1014.64 1013.83 1013.12 1012.49 1011.95 1011.39 1010.23 1009.38 1008.91 1008.22 1008.37 1008.00 1007.24 1006.39 1006.46 1007.60 1008.09 1007.82 1007.77 1007.72
1020.06 1019.61 1018.91 1018.09 1016.81 1014.74 1013.43 1014.07 1014.24 1014.08 1013.15 1013.09 1013.53 1013.87 1014.44 1015.00 1015.53 1015.96 1016.47 1016.72 1016.63 1016.59 1016.31 1015.85 1015.26 1014.58 1013.88 1013.16 1012.71 1012.14 1011.66 1011.22 1010.73 1010.62 1010.44 1010.03 1009.45 1008.95 1009.08 1009.50 1008.35 1008.40 1008.51 1009.14
1019.99 1019.83 1019.03 1018.44 1017.05 1014.79 1013.32 1013.72 1014.01 1014.06 1013.04 1012.53 1013.23 1013.68 1014.11 1014.69 1014.77 1015.37 1016.13 1016.66 1016.70 1016.73 1016.59 1016.19 1015.63 1015.14 1014.52 1014.22 1013.63 1012.87 1012.43 1012.13 1011.76 1011.66 1011.36 1010.79 1010.17 1009.76 1009.44 1009.58 1009.84 1010.11 1010.04 1010.31
1019.27 1018.99 1018.26 1017.56 1016.47 1014.01 1013.03 1013.60 1014.05 1013.75 1012.96 1012.67 1013.17 1013.58 1014.15 1014.45 1014.69 1015.40 1016.27 1016.69 1016.95 1016.99 1016.76 1016.53 1016.14 1015.84 1015.65 1015.35 1014.79 1014.11 1013.82 1013.43 1013.29 1012.92 1012.48 1011.98 1011.74 1011.47 1011.13 1010.94 1010.98 1011.10 1011.15 1011.32
1017.97 1017.67 1017.18 1016.88 1015.87 1013.78 1013.07 1013.81 1013.39 1012.37 1012.61 1012.77 1013.25 1013.58 1013.97 1014.44 1015.08 1015.59 1016.13 1016.55 1016.81 1016.85 1016.81 1016.62 1016.38 1016.23 1016.14 1015.85 1015.22 1014.77 1014.64 1014.65 1014.18 1013.79 1013.60 1013.14 1012.75 1012.53 1012.34 1012.08 1012.06 1011.99 1012.05 1012.27
1017.59 1016.53 1015.97 1015.38 1013.18 1012.39 1012.55 1012.09 1012.09 1012.34 1012.27 1012.78 1013.08 1013.52 1013.78 1014.28 1014.72 1015.21 1015.68 1016.10 1016.42 1016.70 1016.86 1016.91 1016.73 1016.70 1016.65 1016.44 1016.01 1015.56 1015.51 1015.02 1014.56 1014.31 1014.14 1013.96 1013.86 1013.60 1013.48 1013.20 1013.13 1013.04 1013.12 1013.21
1016.83 1016.56 1015.88 1015.04 1011.88 1012.19 1012.16 1012.05 1012.38 1012.40 1012.39 1012.53 1012.84 1013.20 1013.67 1013.94 1014.43 1014.90 1015.36 1015.80 1016.15 1016.44 1016.66 1016.83 1016.90 1016.83 1016.83 1016.89 1016.71 1016.52 1016.32 1015.99 1015.54 1015.23 1015.03 1014.91 1014.67 1014.51 1014.40 1014.50 1014.24 1014.11 1014.06 1014.13
1016.14 1016.49 1015.21 1014.07 1012.57 1012.16 1011.81 1011.88 1011.73 1011.95 1012.29 1012.45 1012.60 1012.72 1013.00 1013.44 1013.77 1014.19 1014.67 1015.11 1015.57 1016.02 1016.42 1016.73 1016.74 1016.78 1016.82 1016.90 1016.80 1016.70 1016.62 1016.40 1016.17 1016.05 1015.98 1015.85 1015.66 1015.42 1015.30 1015.25 1015.30 1015.20 1015.35 1015.21
1015.69 1014.48 1014.15 1012.64 1012.50 1012.54 1011.73 1011.87 1011.89 1011.88 1011.70 1011.86 1012.23 1012.50 1012.65 1012.84 1013.00 1013.51 1013.83 1014.24 1014.75 1015.20 1015.64 1016.03 1016.21 1016.37 1016.52 1016.70 1016.75 1016.81 1016.85 1016.69 1016.44 1016.27 1016.27 1016.32 1016.19 1016.14 1016.09 1016.09 1016.30 1016.47 1016.37 1016.22
Wind_Speed
6 2 3 2 3 3 2 2 7 10 6 8 14 21 20 20 18 16 15 9 7 13 15 14 12 13 14 14 15 16 16 17 13 11 11 11 12 11 11 10 15 18 15 15
3 4 0 4 4 2 3 6 9 10 4 8 14 24 21 12 10 7 7 9 14 17 17 16 15 13 13 15 15 16 17 17 15 11 11 11 11 11 11 10 13 13 14 14
3 5 6 3 4 5 7 9 8 6 9 13 14 16 4 4 4 4 8 13 18 19 20 19 18 17 14 15 16 17 18 17 17 17 11 10 10 9 10 11 10 12 15 16
2 3 6 8 8 8 5 2 7 7 6 6 5 7 4 3 3 6 10 16 20 22 22 21 21 19 17 15 15 16 17 18 16 17 14 18 13 13 12 12 12 12 14 16
3 5 6 6 3 8 3 2 6 9 9 8 3 4 4 1 4 8 19 22 23 24 23 23 21 20 18 16 14 14 15 17 17 16 18 15 17 12 11 12 15 17 12 15
5 0 3 4 1 8 5 7 6 4 4 5 2 5 4 3 5 17 23 23 23 23 23 23 22 20 16 13 13 13 14 16 16 17 18 19 19 16 12 14 12 12 12 9
2 3 3 4 5 4 4 4 3 3 3 3 2 5 9 9 7 21 23 24 22 21 19 19 21 18 15 13 13 12 12 15 16 17 17 18 17 18 18 16 12 14 11 10
3 3 7 8 5 2 3 2 4 5 4 7 5 7 1 3 13 20 20 20 19 19 19 19 19 14 14 13 13 12 12 14 14 15 16 15 17 11 12 15 12 12 12 12
3 3 2 5 2 3 5 4 1 5 4 5 2 5 7 7 21 20 18 18 18 20 19 18 18 11 9 10 12 11 11 12 12 14 13 15 15 16 14 17 15 12 14 12
1 4 3 1 3 7 4 2 4 4 5 5 3 4 4 16 19 18 21 19 19 17 18 17 15 17 8 8 9 10 10 10 11 14 15 14 16 17 16 14 17 17 15 17
3 3 3 3 4 3 4 3 4 4 4 4 6 2 3 12 14 15 16 16 15 16 17 16 16 15 16 9 7 8 8 9 12 13 14 14 13 15 15 15 16 17 17 17
3 2 3 0 5 3 1 3 3 4 1 4 3 4 8 14 15 14 13 15 14 13 12 12 13 13 13 14 13 7 5 7 11 12 12 12 12 13 15 17 18 17 17 16
2 0 3 4 4 3 3 3 4 6 2 3 4 5 8 15 12 16 14 15 13 13 13 12 13 14 13 12 12 7 8 7 5 7 9 12 12 13 15 16 17 17 17 16
3 2 4 4 3 2 3 5 2 2 4 5 3 13 12 13 14 18 18 17 16 17 19 19 18 16 15 15 15 13 12 11 8 6 6 8 11 12 12 13 15 14 15 14
3 3 4 9 11 8 6 10 7 4 6 5 6 11 9 11 12 13 15 19 20 20 21 19 18 17 17 17 15 14 14 17 4 6 4 5 5 4 4 6 10 12 13 13
1 3 3 6 6 10 13 14 13 12 9 11 10 11 4 7 9 13 14 15 16 17 17 18 18 18 17 18 17 15 16 16 13 11 11 4 5 7 6 5 5 7 11 4
2 3 3 5 4 8 10 10 13 5 6 5 6 2 6 5 8 11 11 13 14 15 16 16 16 15 14 15 14 16 15 15 15 15 14 11 7 8 10 12 7 7 8 12
3 2 2 6 8 4 3 2 1 7 8 12 10 9 3 2 3 6 7 9 11 12 14 14 13 14 15 14 16 15 16 16 17 21 17 14 12 14 15 15 6 11 11 14
5 2 3 4 5 12 3 5 6 6 4 9 13 8 4 4 4 2 4 5 6 8 8 9 10 11 12 15 14 14 15 15 15 14 12 12 11 13 13 12 14 13 14 13
3 4 5 2 3 5 3 2 2 4 7 8 9 7 5 6 5 3 2 2 4 5 6 8 9 10 12 14 13 14 15 16 16 15 15 15 16 16 17 16 14 11 12 13
4 4 10 8 6 9 3 6 4 4 3 10 10 8 7 6 3 8 5 1 2 4 5 6 7 8 10 10 10 12 13 14 12 11 13 15 15 15 15 14 12 10 11 11
6 5 5 4 6 8 7 6 6 2 2 7 8 8 10 5 7 7 6 5 3 1 3 5 6 7 8 9 8 11 12 9 9 10 11 12 13 11 10 13 11 12 12 12
5 6 2 8 6 2 13 4 7 3 4 7 9 8 9 10 9 10 10 9 7 6 3 2 3 4 5 7 8 8 9 10 10 10 11 11 11 11 11 11 11 9 11 10
6 5 5 4 4 14 14 15 9 8 8 7 9 10 11 11 10 10 8 8 7 7 6 4 4 1 2 4 5 5 5 6 7 8 9 8 9 9 9 8 8 8 8 8
2 7 6 9 15 13 14 14 14 15 9 8 9 12 14 11 11 11 10 10 9 8 7 7 6 4 3 1 2 4 4 4 4 5 5 6 6 7 8 8 7 7 9 7
8 7 7 5 1 5 5 4 6 15 16 14 12 11 12 13 12 12 10 10 10 10 9 8 8 7 5 4 1 1 3 3 1 3 3 4 3 4 4 5 6 12 11 11
Wind_Direction
42 57 57 91 88 94 125 234 273 272 286 276 270 279 286 281 277 267 264 251 286 309 308 293 283 274 265 257 254 247 245 241 235 232 231 231 229 229 230 228 226 216 210 197
112 68 27 108 126 184 248 285 271 275 218 284 295 288 286 290 282 243 226 267 300 312 307 299 291 275 261 260 255 249 245 239 233 234 233 233 230 229 231 223 226 217 198 202
70 109 118 139 175 222 237 254 286 287 320 275 283 270 228 202 256 253 265 281 296 306 305 300 294 286 270 261 256 253 247 239 232 229 229 228 230 230 223 225 219 218 210 200
324 121 232 241 237 221 274 226 270 294 307 285 332 291 294 263 242 247 292 315 315 312 307 300 295 287 278 269 262 258 248 241 234 226 223 222 223 220 221 222 224 220 213 207
124 192 192 229 250 171 288 183 249 264 267 288 154 253 275 273 268 318 327 327 321 313 307 301 293 286 280 274 261 255 242 240 235 223 220 219 223 227 224 222 220 219 220 221
260 59 260 254 272 213 284 275 248 251 252 254 183 252 257 257 315 324 331 325 319 314 309 304 296 286 275 266 256 242 232 237 231 225 220 223 224 224 223 223 223 220 213 212
279 199 235 217 229 183 223 279 256 231 217 297 148 225 275 280 300 334 331 322 318 311 306 299 293 286 272 252 242 229 227 229 222 218 219 222 224 226 227 227 227 224 218 216
356 196 195 174 221 196 185 228 308 299 303 310 139 241 223 22 330 341 324 320 313 315 315 312 306 285 269 257 248 236 217 215 215 215 218 219 218 219 225 229 229 235 231 220
240 232 164 214 177 196 135 214 342 272 216 267 233 254 248 332 338 333 324 323 320 321 322 320 323 324 286 263 253 246 231 224 214 217 217 220 215 217 219 223 228 233 236 234
59 285 181 185 221 219 228 10 235 195 293 292 232 267 295 337 319 323 329 326 324 324 325 329 333 339 318 279 259 243 238 228 224 219 216 214 215 217 218 220 222 226 228 237
183 246 109 192 206 156 187 226 229 279 273 305 310 350 55 316 323 323 313 315 318 327 333 341 343 341 340 321 274 255 244 227 225 222 219 217 213 218 223 220 220 220 224 217
187 275 287 301 154 183 268 277 241 279 154 229 287 294 6 327 328 330 326 326 344 346 347 348 349 350 352 342 309 266 256 230 228 229 224 218 213 217 222 223 221 220 222 218
188 288 298 171 156 162 249 235 278 284 278 255 294 303 331 325 340 346 347 355 358 3 6 9 14 12 360 352 353 297 305 284 257 228 219 220 214 213 220 222 224 221 219 211
236 269 249 282 325 307 257 264 266 239 279 317 267 288 314 327 352 351 351 359 6 14 16 16 14 11 10 11 14 9 351 307 252 210 211 213 215 214 224 226 223 213 219 227
263 276 251 265 257 252 262 274 272 227 264 263 314 303 312 343 357 352 352 2 13 14 13 7 8 9 11 15 14 8 360 0 197 152 180 221 215 185 201 231 239 230 226 228
209 287 307 283 285 248 264 263 259 262 259 257 275 283 3 359 8 8 10 5 8 7 5 3 7 13 12 5 2 11 16 21 33 52 34 80 76 68 66 24 320 280 240 225
239 288 316 278 322 301 270 261 226 176 202 234 253 314 326 350 10 16 2 14 12 7 6 8 7 5 8 10 9 7 13 34 40 49 44 27 33 83 65 50 53 61 80 75
231 203 258 295 313 259 85 166 241 229 237 213 250 266 282 317 91 43 16 19 20 13 11 12 8 11 18 16 25 29 26 32 38 39 26 17 28 59 61 58 49 93 86 72
240 265 257 280 293 297 216 179 186 205 275 222 219 230 204 169 161 74 29 21 32 15 10 10 11 14 18 20 20 26 39 43 47 48 44 42 51 73 88 91 53 56 73 70
173 245 259 174 271 272 47 134 150 163 259 188 191 205 208 188 224 144 158 24 30 36 23 14 14 18 22 16 16 28 34 32 34 31 35 42 44 51 59 62 63 60 64 71
182 207 229 231 260 276 220 142 162 241 48 175 189 192 183 207 345 116 147 157 342 13 10 13 29 29 20 7 17 36 32 29 28 34 33 41 46 50 53 59 60 67 71 75
210 192 202 190 218 264 141 121 209 63 128 179 190 188 195 190 159 163 175 188 203 238 338 13 19 24 14 7 16 35 33 20 32 40 47 43 43 41 43 54 57 58 63 66
240 227 262 222 231 74 195 244 212 203 171 186 196 193 185 175 188 188 192 194 198 210 211 267 6 24 18 8 13 31 14 15 23 35 38 41 46 45 50 52 52 53 54 56
227 193 245 313 233 241 233 232 236 219 222 195 203 187 182 191 194 201 203 201 204 207 218 226 237 242 36 12 22 30 16 19 30 41 40 37 49 52 56 54 53 57 53 56
287 161 220 258 282 276 248 243 246 224 226 215 198 194 197 201 199 200 201 205 207 209 209 214 224 231 209 200 33 26 12 12 55 61 56 53 49 57 63 61 50 59 51 45
194 198 196 233 75 253 286 348 319 238 233 221 211 205 212 205 206 200 210 205 201 204 201 207 214 216 205 200 166 9 357 352 40 73 58 51 66 70 78 100 96 69 73 72